| time (UTC) | temp F | wind direction | speed MPH | gust MPH | rain 1hr in | rain 24hr in | rain mn in | humidity % | barometer mb |
| 20260510200904 | 54 | 213 | 0.0 | 1.0 | 0.00 | 0.02 | 0.00 | 92 | 1014.3 |
| 20260510195904 | 53 | 221 | 0.0 | 1.0 | 0.00 | 0.02 | 0.00 | 93 | 1014.0 |
| 20260510195405 | 53 | 236 | 0.0 | 2.0 | 0.00 | 0.02 | 0.00 | 93 | 1013.9 |
| 20260510194904 | 52 | 237 | 1.0 | 2.0 | 0.00 | 0.02 | 0.00 | 92 | 1013.7 |
| 20260510193905 | 52 | 236 | 2.0 | 3.0 | 0.00 | 0.02 | 0.00 | 92 | 1013.5 |
| 20260510192906 | 52 | 209 | 1.0 | 2.0 | 0.00 | 0.02 | 0.00 | 93 | 1013.3 |
| 20260510192405 | 52 | 211 | 1.0 | 3.0 | 0.00 | 0.02 | 0.00 | 93 | 1013.1 |
| 20260510191405 | 52 | 193 | 3.0 | 3.0 | 0.00 | 0.02 | 0.00 | 93 | 1012.9 |
| 20260510190405 | 51 | 176 | 3.0 | 3.0 | 0.00 | 0.02 | 0.00 | 93 | 1012.7 |
| 20260510184405 | 50 | 153 | 2.0 | 3.0 | 0.00 | 0.02 | 0.00 | 93 | 1012.4 |
| 20260510183905 | 50 | 148 | 3.0 | 3.0 | 0.00 | 0.02 | 0.00 | 92 | 1012.3 |
| 20260510183405 | 49 | 147 | 2.0 | 3.0 | 0.00 | 0.02 | 0.00 | 92 | 1012.2 |
| 20260510181905 | 49 | 126 | 2.0 | 3.0 | 0.00 | 0.02 | 0.00 | 91 | 1011.9 |
| 20260510181406 | 49 | 125 | 2.0 | 3.0 | 0.00 | 0.02 | 0.00 | 91 | 1011.9 |
| 20260510180905 | 50 | 125 | 2.0 | 3.0 | 0.00 | 0.02 | 0.00 | 92 | 1011.8 |
| 20260510175906 | 50 | 127 | 3.0 | 3.0 | 0.00 | 0.02 | 0.00 | 91 | 1011.5 |
| 20260510174405 | 49 | 232 | 2.0 | 3.0 | 0.00 | 0.02 | 0.00 | 91 | 1011.3 |
| 20260510173405 | 50 | 236 | 2.0 | 3.0 | 0.00 | 0.02 | 0.00 | 90 | 1011.2 |
| 20260510165906 | 52 | 300 | 1.0 | 1.0 | 0.00 | 0.02 | 0.00 | 89 | 1010.6 |
| 20260510164405 | 53 | 300 | 0.0 | 0.0 | 0.00 | 0.02 | 0.00 | 89 | 1010.4 |
| 20260510163905 | 54 | 300 | 0.0 | 1.0 | 0.00 | 0.02 | 0.00 | 89 | 1010.3 |
| 20260510163405 | 53 | 300 | 1.0 | 1.0 | 0.00 | 0.02 | 0.00 | 89 | 1010.2 |
| 20260510162906 | 53 | 301 | 1.0 | 2.0 | 0.00 | 0.02 | 0.00 | 89 | 1010.1 |
| 20260510161906 | 54 | 300 | 1.0 | 2.0 | 0.00 | 0.02 | 0.00 | 88 | 1010.0 |
| 20260510160405 | 54 | 300 | 1.0 | 2.0 | 0.00 | 0.02 | 0.00 | 88 | 1009.8 |
| 20260510155906 | 54 | 300 | 1.0 | 2.0 | 0.00 | 0.02 | 0.00 | 88 | 1009.9 |
| 20260510155406 | 54 | 300 | 1.0 | 5.0 | 0.00 | 0.02 | 0.00 | 87 | 1009.8 |
| 20260510154405 | 54 | 287 | 4.0 | 5.0 | 0.00 | 0.02 | 0.00 | 87 | 1009.7 |
| 20260510152405 | 54 | 269 | 5.0 | 5.0 | 0.00 | 0.02 | 0.00 | 87 | 1009.5 |
| 20260510151906 | 54 | 263 | 5.0 | 6.0 | 0.00 | 0.02 | 0.00 | 86 | 1009.4 |
| 20260510150405 | 54 | 260 | 4.0 | 5.0 | 0.00 | 0.02 | 0.00 | 86 | 1009.4 |
| 20260510145905 | 54 | 253 | 5.0 | 6.0 | 0.00 | 0.02 | 0.00 | 86 | 1009.4 |
| 20260510142906 | 56 | 275 | 2.0 | 3.0 | 0.00 | 0.02 | 0.00 | 88 | 1009.3 |
| 20260510141406 | 55 | 269 | 1.0 | 3.0 | 0.00 | 0.02 | 0.00 | 88 | 1009.3 |
| 20260510140905 | 56 | 269 | 0.0 | 0.0 | 0.00 | 0.02 | 0.00 | 87 | 1009.3 |
| 20260510135405 | 56 | 269 | 2.0 | 3.0 | 0.00 | 0.02 | 0.00 | 86 | 1009.2 |
| 20260510134906 | 56 | 275 | 3.0 | 5.0 | 0.00 | 0.02 | 0.00 | 86 | 1009.1 |
| 20260510133405 | 56 | 266 | 3.0 | 5.0 | 0.00 | 0.02 | 0.00 | 87 | 1009.0 |
| 20260510132905 | 57 | 275 | 2.0 | 3.0 | 0.00 | 0.02 | 0.00 | 87 | 1008.9 |
| 20260510132405 | 57 | 274 | 2.0 | 3.0 | 0.00 | 0.02 | 0.00 | 86 | 1008.9 |
| 20260510131405 | 57 | 263 | 3.0 | 3.0 | 0.00 | 0.02 | 0.00 | 86 | 1008.8 |
| 20260510130905 | 57 | 249 | 3.0 | 3.0 | 0.00 | 0.02 | 0.00 | 86 | 1008.8 |
| 20260510130405 | 57 | 247 | 4.0 | 7.0 | 0.00 | 0.02 | 0.00 | 86 | 1008.7 |
| 20260510125905 | 58 | 262 | 6.0 | 9.0 | 0.00 | 0.02 | 0.00 | 87 | 1008.7 |
| 20260510125406 | 58 | 261 | 7.0 | 10.0 | 0.00 | 0.02 | 0.00 | 87 | 1008.6 |
| 20260510124905 | 58 | 259 | 6.0 | 9.0 | 0.00 | 0.02 | 0.00 | 87 | 1008.5 |
| 20260510124405 | 57 | 259 | 7.0 | 12.0 | 0.00 | 0.02 | 0.00 | 87 | 1008.5 |
| 20260510122906 | 57 | 286 | 4.0 | 7.0 | 0.00 | 0.02 | 0.00 | 88 | 1008.3 |
| 20260510115405 | 58 | 246 | 7.0 | 12.0 | 0.00 | 0.02 | 0.02 | 88 | 1008.0 |
| 20260510114904 | 58 | 237 | 6.0 | 7.0 | 0.00 | 0.02 | 0.02 | 88 | 1007.9 |
| 20260510114406 | 58 | 237 | 6.0 | 8.0 | 0.00 | 0.02 | 0.02 | 88 | 1007.8 |
| 20260510112405 | 59 | 227 | 7.0 | 10.0 | 0.00 | 0.03 | 0.02 | 87 | 1007.6 |
| 20260510111905 | 59 | 251 | 8.0 | 12.0 | 0.00 | 0.04 | 0.02 | 86 | 1007.5 |
| 20260510110905 | 59 | 274 | 5.0 | 7.0 | 0.00 | 0.04 | 0.02 | 88 | 1007.5 |
| 20260510105905 | 59 | 252 | 1.0 | 2.0 | 0.00 | 0.04 | 0.02 | 89 | 1007.5 |
| 20260510105405 | 59 | 252 | 0.0 | 3.0 | 0.00 | 0.05 | 0.02 | 89 | 1007.4 |
| 20260510104906 | 59 | 252 | 2.0 | 5.0 | 0.00 | 0.06 | 0.02 | 89 | 1007.4 |
| 20260510103905 | 59 | 260 | 3.0 | 5.0 | 0.00 | 0.06 | 0.02 | 89 | 1007.3 |
| 20260510102405 | 59 | 256 | 6.0 | 10.0 | 0.00 | 0.11 | 0.02 | 88 | 1007.1 |
| 20260510100405 | 60 | 251 | 5.0 | 10.0 | 0.00 | 0.11 | 0.02 | 87 | 1006.8 |
| 20260510095905 | 60 | 254 | 4.0 | 10.0 | 0.00 | 0.11 | 0.02 | 87 | 1006.7 |
| 20260510095405 | 60 | 262 | 4.0 | 7.0 | 0.00 | 0.11 | 0.02 | 87 | 1006.7 |
| 20260510094905 | 60 | 240 | 3.0 | 9.0 | 0.00 | 0.11 | 0.02 | 87 | 1006.6 |
| 20260510093905 | 60 | 234 | 6.0 | 10.0 | 0.00 | 0.11 | 0.02 | 87 | 1006.3 |
| 20260510092405 | 60 | 256 | 7.0 | 13.0 | 0.00 | 0.11 | 0.02 | 86 | 1006.2 |
| 20260510091405 | 60 | 252 | 12.0 | 20.0 | 0.00 | 0.11 | 0.02 | 86 | 1006.0 |
| 20260510090405 | 60 | 252 | 13.0 | 20.0 | 0.00 | 0.11 | 0.02 | 87 | 1005.7 |
| 20260510083404 | 59 | 256 | 10.0 | 14.0 | 0.01 | 0.11 | 0.02 | 90 | 1005.4 |
| 20260510082405 | 59 | 260 | 12.0 | 15.0 | 0.01 | 0.11 | 0.02 | 91 | 1005.4 |
| 20260510080905 | 60 | 251 | 14.0 | 20.0 | 0.01 | 0.11 | 0.02 | 85 | 1005.2 |
| 20260510073907 | 60 | 244 | 12.0 | 18.0 | 0.01 | 0.12 | 0.02 | 88 | 1005.2 |
| 20260510073405 | 60 | 247 | 10.0 | 16.0 | 0.00 | 0.11 | 0.02 | 88 | 1005.1 |
| 20260510072405 | 60 | 227 | 11.0 | 14.0 | 0.00 | 0.12 | 0.02 | 87 | 1005.1 |
| 20260510071405 | 60 | 248 | 10.0 | 14.0 | 0.00 | 0.13 | 0.02 | 88 | 1005.0 |
| 20260510070405 | 60 | 259 | 9.0 | 13.0 | 0.00 | 0.13 | 0.02 | 88 | 1004.9 |
| 20260510063905 | 60 | 272 | 11.0 | 16.0 | 0.00 | 0.14 | 0.02 | 86 | 1004.6 |
| 20260510061905 | 60 | 268 | 15.0 | 21.0 | 0.00 | 0.18 | 0.02 | 87 | 1004.2 |
| 20260510060404 | 60 | 267 | 15.0 | 18.0 | 0.00 | 0.18 | 0.02 | 86 | 1004.1 |
| 20260510055904 | 60 | 257 | 17.0 | 21.0 | 0.00 | 0.18 | 0.02 | 85 | 1003.9 |
| 20260510055405 | 60 | 252 | 16.0 | 20.0 | 0.00 | 0.18 | 0.02 | 83 | 1003.8 |
| 20260510054404 | 60 | 245 | 19.0 | 26.0 | 0.00 | 0.18 | 0.02 | 82 | 1003.5 |
| 20260510053405 | 61 | 250 | 13.0 | 17.0 | 0.00 | 0.18 | 0.02 | 81 | 1003.3 |
| 20260510052904 | 61 | 241 | 16.0 | 23.0 | 0.00 | 0.18 | 0.02 | 81 | 1003.4 |
| 20260510052405 | 61 | 250 | 22.0 | 29.0 | 0.00 | 0.18 | 0.02 | 81 | 1003.3 |
| 20260510050405 | 61 | 247 | 20.0 | 26.0 | 0.00 | 0.18 | 0.02 | 81 | 1003.0 |
| 20260510044905 | 62 | 249 | 18.0 | 21.0 | 0.00 | 0.18 | 0.02 | 80 | 1002.9 |
| 20260510043405 | 63 | 240 | 22.0 | 29.0 | 0.00 | 0.19 | 0.02 | 78 | 1002.9 |
| 20260510041405 | 64 | 235 | 14.0 | 21.0 | 0.00 | 0.19 | 0.02 | 78 | 1002.7 |
| 20260510035405 | 63 | 241 | 14.0 | 20.0 | 0.00 | 0.19 | 0.02 | 80 | 1002.8 |
| 20260510033905 | 61 | 244 | 16.0 | 20.0 | 0.00 | 0.19 | 0.02 | 85 | 1003.2 |
| 20260510032905 | 62 | 231 | 20.0 | 23.0 | 0.00 | 0.19 | 0.02 | 80 | 1003.2 |
| 20260510032405 | 63 | 246 | 24.0 | 30.0 | 0.00 | 0.19 | 0.02 | 76 | 1003.1 |
| 20260510031904 | 64 | 251 | 24.0 | 31.0 | 0.00 | 0.19 | 0.02 | 76 | 1003.0 |
| 20260510030906 | 63 | 252 | 20.0 | 31.0 | 0.00 | 0.19 | 0.02 | 78 | 1003.0 |
| 20260510025905 | 64 | 246 | 20.0 | 29.0 | 0.00 | 0.19 | 0.02 | 79 | 1002.9 |
| 20260510025404 | 63 | 244 | 20.0 | 24.0 | 0.00 | 0.19 | 0.02 | 79 | 1003.0 |
| 20260510024905 | 63 | 239 | 21.0 | 25.0 | 0.00 | 0.19 | 0.02 | 79 | 1003.0 |
| 20260510023905 | 64 | 237 | 22.0 | 30.0 | 0.00 | 0.19 | 0.02 | 77 | 1003.0 |
| 20260510022404 | 64 | 242 | 17.0 | 24.0 | 0.00 | 0.19 | 0.02 | 77 | 1002.6 |
| 20260510021906 | 65 | 255 | 20.0 | 24.0 | 0.00 | 0.19 | 0.02 | 75 | 1002.6 |
| 20260510021405 | 65 | 252 | 17.0 | 22.0 | 0.00 | 0.19 | 0.02 | 76 | 1002.6 |
| 20260510020904 | 64 | 244 | 18.0 | 23.0 | 0.00 | 0.19 | 0.02 | 75 | 1002.7 |
| 20260510015404 | 65 | 252 | 18.0 | 25.0 | 0.00 | 0.19 | 0.02 | 78 | 1002.7 |
| 20260510014905 | 64 | 257 | 14.0 | 22.0 | 0.00 | 0.19 | 0.02 | 80 | 1002.7 |
| 20260510014405 | 64 | 252 | 18.0 | 31.0 | 0.00 | 0.19 | 0.02 | 78 | 1002.7 |
| 20260510013905 | 64 | 253 | 20.0 | 31.0 | 0.00 | 0.19 | 0.02 | 77 | 1002.6 |
| 20260510012904 | 65 | 245 | 22.0 | 28.0 | 0.00 | 0.19 | 0.02 | 77 | 1002.5 |
| 20260510011905 | 65 | 241 | 24.0 | 31.0 | 0.00 | 0.19 | 0.02 | 78 | 1002.5 |
| 20260510011405 | 65 | 239 | 18.0 | 25.0 | 0.00 | 0.19 | 0.02 | 78 | 1002.6 |
| 20260510005405 | 65 | 238 | 19.0 | 25.0 | 0.00 | 0.19 | 0.02 | 76 | 1002.6 |
| 20260510004904 | 65 | 239 | 16.0 | 20.0 | 0.00 | 0.19 | 0.02 | 77 | 1002.7 |
| 20260510002405 | 65 | 245 | 20.0 | 24.0 | 0.00 | 0.19 | 0.02 | 78 | 1002.7 |
| 20260510001904 | 63 | 242 | 20.0 | 26.0 | 0.00 | 0.19 | 0.02 | 79 | 1002.8 |
| 20260510001405 | 63 | 232 | 17.0 | 22.0 | 0.00 | 0.19 | 0.02 | 80 | 1002.9 |
| 20260510000904 | 63 | 252 | 15.0 | 18.0 | 0.00 | 0.19 | 0.02 | 80 | 1002.9 |
| 20260510000405 | 63 | 252 | 12.0 | 16.0 | 0.00 | 0.19 | 0.02 | 81 | 1003.0 |
| 20260509234904 | 64 | 238 | 17.0 | 21.0 | 0.00 | 0.19 | 0.02 | 81 | 1003.1 |
| 20260509234404 | 63 | 254 | 17.0 | 23.0 | 0.00 | 0.19 | 0.02 | 82 | 1003.3 |
| 20260509231904 | 64 | 249 | 18.0 | 24.0 | 0.00 | 0.19 | 0.02 | 78 | 1003.2 |
| 20260509231407 | 63 | 240 | 14.0 | 26.0 | 0.00 | 0.20 | 0.02 | 79 | 1003.3 |
| 20260509230905 | 63 | 248 | 14.0 | 18.0 | 0.01 | 0.30 | 0.02 | 79 | 1003.3 |
| 20260509225404 | 62 | 267 | 17.0 | 21.0 | 0.01 | 0.30 | 0.02 | 80 | 1003.6 |
| 20260509222406 | 61 | 245 | 12.0 | 13.0 | 0.01 | 0.30 | 0.02 | 88 | 1003.5 |
| 20260509221404 | 59 | 226 | 16.0 | 26.0 | 0.01 | 0.30 | 0.02 | 86 | 1003.6 |
| 20260509220904 | 61 | 237 | 16.0 | 23.0 | 0.00 | 0.29 | 0.01 | 80 | 1003.6 |
| 20260509220404 | 62 | 249 | 12.0 | 16.0 | 0.00 | 0.29 | 0.01 | 82 | 1003.5 |
| 20260509215904 | 62 | 256 | 12.0 | 20.0 | 0.00 | 0.29 | 0.01 | 82 | 1003.5 |
| 20260509215405 | 62 | 259 | 13.0 | 17.0 | 0.00 | 0.29 | 0.01 | 81 | 1003.5 |
| 20260509214404 | 62 | 258 | 9.0 | 15.0 | 0.00 | 0.29 | 0.01 | 82 | 1003.5 |
| 20260509213404 | 62 | 246 | 11.0 | 16.0 | 0.00 | 0.29 | 0.01 | 84 | 1003.5 |
| 20260509212904 | 61 | 258 | 9.0 | 14.0 | 0.00 | 0.29 | 0.01 | 85 | 1003.4 |
| 20260509212404 | 61 | 246 | 11.0 | 15.0 | 0.00 | 0.29 | 0.01 | 85 | 1003.4 |
| 20260509211905 | 61 | 245 | 13.0 | 15.0 | 0.00 | 0.29 | 0.01 | 86 | 1003.4 |
| 20260509210404 | 59 | 262 | 10.0 | 16.0 | 0.00 | 0.29 | 0.01 | 89 | 1003.3 |
| 20260509205904 | 59 | 256 | 8.0 | 13.0 | 0.00 | 0.29 | 0.01 | 90 | 1003.3 |
| 20260509205404 | 59 | 266 | 11.0 | 14.0 | 0.00 | 0.29 | 0.01 | 91 | 1003.2 |
| 20260509204905 | 58 | 280 | 7.0 | 10.0 | 0.00 | 0.30 | 0.01 | 92 | 1003.1 |
| 20260509204404 | 58 | 274 | 8.0 | 10.0 | 0.00 | 0.30 | 0.01 | 92 | 1003.1 |
| 20260509203405 | 57 | 277 | 4.0 | 7.0 | 0.00 | 0.31 | 0.01 | 93 | 1003.1 |
| 20260509202905 | 57 | 284 | 6.0 | 7.0 | 0.00 | 0.31 | 0.01 | 93 | 1003.1 |
| 20260509202404 | 57 | 288 | 5.0 | 6.0 | 0.00 | 0.31 | 0.01 | 93 | 1003.1 |
| 20260509201905 | 56 | 295 | 3.0 | 6.0 | 0.00 | 0.31 | 0.01 | 93 | 1003.1 |
| 20260509201404 | 56 | 266 | 5.0 | 7.0 | 0.00 | 0.31 | 0.01 | 93 | 1003.0 |